Regional Weather Roundup
Issued by NWS Newport/Morehead, NC

Current Version | Previous Version | Text Only | Print | Product List | Glossary On
Versions: 1 2 3 4 5 6 7 8 9 10 11 12 13 14 15 16 17 18 19 20 21 22 23 24 25 26 27 28 29 30 31 32 33 34 35 36 37 38 39 40 41 42 43 44 45 46 47 48 49 50
000
ASUS42 KMHX 161225
RWRMHX
WEATHER ROUNDUP FOR EASTERN NORTH CAROLINA
NATIONAL WEATHER SERVICE NEWPORT/MOREHEAD CITY NC
700 AM EST TUE JAN 16 2018

NOTE: "FAIR" INDICATES FEW OR NO CLOUDS BELOW 12,000 FEET
WITH NO SIGNIFICANT WEATHER AND/OR OBSTRUCTIONS TO VISIBILITY

NCZ015>017-031-032-045>047-102-103-161300-
NORTH COAST

CITY           SKY/WX    TMP DP  RH WIND       PRES   REMARKS
EDENTON        FOG       31  31  99 N7        30.48R VSB 1/2
ELIZABETH CITY FOG       32  32 100 NW13      30.46R VSB 1/2
KITTY HAWK     FOG      N/A N/A N/A MISG      30.44R VSB 3/4
MANTEO         FOG       32  32 100 N10G16    30.46R VSB 1/2

$$

NCZ045>047-081-094-103-104-161300-
CENTRAL COAST

CITY           SKY/WX    TMP DP  RH WIND       PRES   REMARKS
FRISCO         NOT AVBL

$$

NCZ095-097-098-100-101-161300-
SOUTHERN COAST

CITY           SKY/WX    TMP DP  RH WIND       PRES   REMARKS
BEAUFORT       FAIR      30  29  96 N5        30.46R
CEDAR ISLAND   NOT AVBL
JACKSONVILLE   FAIR      28  26  92 NW3       30.46S
PINEY ISLAND   NOT AVBL
WILMINGTON     FAIR      27  24  89 CALM      30.46S


$$

NCZ011>013-027>030-043-044-078>080-089-090>093-098-161300-
COASTAL PLAIN

CITY           SKY/WX    TMP DP  RH WIND       PRES   REMARKS
AHOSKIE        CLOUDY    25  25 100 CALM      30.50R FOG
CLINTON        FAIR      24  23  96 CALM      30.48R
ELIZABETHTOWN  NOT AVBL
GOLDSBORO      FAIR      23  19  85 CALM      30.45S
GREENVILLE     FAIR      27  23  86 CALM      30.47S
HAVELOCK       NOT AVBL
KENANSVILLE    FAIR      23  21  93 CALM      30.47S
KINSTON        FAIR      23  23 100 CALM      30.48S
NEW BERN       FAIR      27  26  96 NW3       30.47R
RICHLANDS      FAIR      24  22  91 CALM      30.47S
ROCKY MOUNT    FAIR      22  21  96 CALM      30.47F
WASHINGTON     FAIR      26  24  93 NW3       30.47S
WHITEVILLE     FAIR      26  22  85 CALM      30.47R

$$

AMZ130-135-150-152-154-156-158-170-250-252-270-ANZ085-086-088-633-658-670-161300-
MARINE OBSERVATIONS

STATION/POSITION TIME  TEMP    WIND        PRES    WAVE   SWELL
                       AIR SEA DIR/SP/G            HT/PER HT/PER
                 (UTC) (F)     (DEG/KT/KT) (MB)    (FT/S) (FT/S)
CHESAPEAKE LIGHT NOT AVBL
64 E VA BEACH    1150   47 65  320/ 17/ 19 1029.9    7/10   5/10
DUCK             1200   32 38  360/ 12/ 14 1030.6
2 E DUCK         1200      39                N/A     5/10   2/11
OREGON INLET     1200   35 41  330/ 11/ 16 1030.7
13E OREGON INLT  1148      45                N/A     7/10   7/10
HATTERAS CG      1200   35 43  360/ 10/ 11 1030.1
DIAMOND BUOY     1200   43 66  340/ 17/ 21 1030.0
CAPE LOOKOUT     1200          330/  8/  9 1031.1
BEAUFORT LAB     1200   33 45  360/  8/ 10 1031.4
30 SE NEW RVR IN 1108   44 60   40/  8/ 12 1030.5
30 SE NEW RVR IN 1200      59                N/A     5/11   2/11
27 SE WRIGHTSVLE 1108   44 63   10/ 12/ 17 1030.2
5 SE WRIGHTSVLE  1208   36 47  360/ 10/ 14 1030.8
225 S CAPE HAT   1150   66 70   30/ 10/ 14 1026.5    9/11   8/11
41 SE CHARLESTON 1200   50 70   10/ 14/ 19 1030.0

$$




USA.gov is the U.S. government's official web portal to all federal, state and local government web resources and services.